K4KJQ-13 Weather Reports


time (UTC)temp
F
wind
direction
speed
knots
gust
knots
rain 1hr
in
rain 24hr
in
rain mn
in
humidity
%
barometer
mb
20260903042830 81 212 0.0 1.7 0.00 0.00 0.00 100
20260903042329 81 198 0.0 2.6 0.00 0.00 0.00 100
20260903041829 80 274 1.7 2.6 0.00 0.00 0.00 100
20260903041330 80 212 0.0 1.7 0.00 0.00 0.00 100
20260903040830 80 243 0.9 1.7 0.00 0.00 0.00 100
20260903040330 79 177 0.0 0.0 0.00 0.00 0.00 100
20260903035830 80 246 0.0 0.9 0.00 0.00 0.00 100
20260903035330 80 254 0.0 0.9 0.00 0.00 0.00 100
20260903034829 81 220 0.0 0.9 0.00 0.00 0.00 100
20260903034330 81 240 0.0 0.9 0.00 0.00 0.00 100
20260903033830 81 239 0.9 0.9 0.00 0.00 0.00 100
20260903033330 81 229 0.0 0.9 0.00 0.00 0.00 100
20260903032830 81 244 0.0 0.9 0.00 0.00 0.00 100
20260903032330 82 258 0.0 0.9 0.00 0.00 0.00 100
20260903031830 81 248 0.0 0.9 0.00 0.00 0.00 100
20260903031330 81 244 0.0 0.9 0.00 0.00 0.00 100
20260903030830 82 222 0.0 0.9 0.00 0.00 0.00 100
20260903030330 82 223 0.0 0.0 0.00 0.00 0.00 100
20260903025830 82 223 0.0 0.0 0.00 0.00 0.00 100
20260903025330 82 237 0.0 1.7 0.00 0.00 0.00 100
20260903024830 83 233 0.9 1.7 0.00 0.00 0.00 100
20260903024330 83 227 0.9 0.9 0.00 0.00 0.00 100
20260903023830 83 243 0.9 0.9 0.00 0.00 0.00 100
20260903023330 83 258 0.0 1.7 0.00 0.00 0.00 100
20260903022830 82 251 0.9 0.9 0.00 0.00 0.00 100
20260903021829 82 241 0.9 0.9 0.00 0.00 0.00 100
20260903021329 82 251 0.9 0.9 0.00 0.00 0.00 100
20260903020829 82 329 0.0 0.9 0.00 0.00 0.00 100
20260903020329 82 326 0.0 0.9 0.00 0.00 0.00 100
20260903015829 82 326 0.0 0.0 0.00 0.00 0.00 100
20260903015329 82 326 0.0 0.0 0.00 0.00 0.00 100
20260903014829 83 326 0.0 0.0 0.00 0.00 0.00 100
20260903014330 83 326 0.0 0.0 0.00 0.00 0.00 100
20260903013829 83 326 0.0 0.0 0.00 0.00 0.00 100
20260903013330 83 326 0.0 0.0 0.00 0.00 0.00 100
20260903012829 84 326 0.0 0.0 0.00 0.00 0.00 100
20260903012329 84 326 0.0 0.0 0.00 0.00 0.00 100
20260903011829 83 326 0.0 0.0 0.00 0.00 0.00 100
20260903011329 83 326 0.0 0.0 0.00 0.00 0.00 100
20260903010830 84 326 0.0 0.0 0.00 0.00 0.00 100
20260903010330 85 326 0.0 0.0 0.00 0.00 0.00 100
20260903005830 85 326 0.0 0.0 0.00 0.00 0.00 100
20260903005330 86 326 0.0 0.0 0.00 0.00 0.00 100
20260903004829 86 326 0.0 0.0 0.00 0.00 0.00 100
20260903004330 86 326 0.0 0.0 0.00 0.00 0.00 100
20260903003830 87 326 0.0 0.0 0.00 0.00 0.00 100
20260903003330 87 326 0.0 0.0 0.00 0.00 0.00 100
20260903002830 88 326 0.0 0.0 0.00 0.00 0.00 100
20260903002330 88 326 0.0 0.0 0.00 0.00 0.00 100
20260903001830 89 326 0.0 0.0 0.00 0.00 0.00 100
20260903001330 90 326 0.0 0.0 0.00 0.00 0.00 100
20260903000830 90 326 0.0 0.0 0.00 0.00 0.00 100
20260903000330 91 326 0.0 2.6 0.00 0.00 0.00 100
20260902235830 90 292 0.0 1.7 0.00 0.00 0.00 100
20260902235330 92 323 0.9 2.6 0.00 0.00 0.00 100
20260902234830 92 284 0.0 2.6 0.00 0.00 0.00 100
20260902234330 93 326 0.9 2.6 0.00 0.00 0.00 100
20260902233830 94 326 0.9 1.7 0.00 0.00 0.00 100
20260902233330 94 326 0.9 2.6 0.00 0.00 0.00 100
20260902232830 94 345 0.9 2.6 0.00 0.00 0.00 100
20260902232330 95 315 0.9 2.6 0.00 0.00 0.00 100
20260902231830 95 352 1.7 3.5 0.00 0.00 0.00 100
20260902231330 95 322 3.5 4.3 0.00 0.00 0.00 100
20260902230830 97 36 0.9 3.5 0.00 0.00 0.00 100
20260902230330 95 300 2.6 5.2 0.00 0.00 0.00 100
20260902225830 96 316 3.5 5.2 0.00 0.00 0.00 100
20260902225330 96 323 0.9 4.3 0.00 0.00 0.00 100
20260902224830 97 312 2.6 4.3 0.00 0.00 0.00 100
20260902224330 97 324 1.7 6.1 0.00 0.00 0.00 100
20260902223830 97 316 2.6 7.0 0.00 0.00 0.00 100
20260902223330 97 296 5.2 5.2 0.00 0.00 0.00 100
20260902222830 97 306 1.7 6.1 0.00 0.00 0.00 100
20260902222330 98 320 1.7 7.8 0.00 0.00 0.00 100
20260902221830 98 312 7.0 7.0 0.00 0.00 0.00 100
20260902221330 98 288 5.2 7.8 0.00 0.00 0.00 100
20260902220830 98 309 3.5 6.1 0.00 0.00 0.00 100
20260902220330 97 313 0.0 8.7 0.00 0.00 0.00 100
20260902215830 98 316 7.0 8.7 0.00 0.00 0.00 100
20260902215330 99 345 1.7 8.7 0.00 0.00 0.00 100
20260902214830 99 313 2.6 7.8 0.00 0.00 0.00 100
20260902214330 97 15 3.5 5.2 0.00 0.00 0.00 100
20260902213830 98 305 0.9 7.8 0.00 0.00 0.00 100
20260902213330 99 319 6.1 9.6 0.00 0.00 0.00 100
20260902212830 99 291 7.0 7.0 0.00 0.00 0.00 100
20260902212330 99 284 0.9 7.8 0.00 0.00 0.00 100
20260902211830 99 313 7.0 8.7 0.00 0.00 0.00 100
20260902211330 99 4 0.0 6.1 0.00 0.00 0.00 100
20260902210830 99 322 4.3 7.0 0.00 0.00 0.00 100
20260902210330 99 305 5.2 7.8 0.00 0.00 0.00 100
20260902205830 98 317 4.3 7.8 0.00 0.00 0.00 100
20260902205330 98 288 4.3 11.3 0.00 0.00 0.00 100
20260902204830 99 302 5.2 7.8 0.00 0.00 0.00 100
20260902204330 99 298 3.5 7.8 0.00 0.00 0.00 100
20260902203830 99 312 3.5 7.0 0.00 0.00 0.00 100
20260902203330 99 315 2.6 4.3 0.00 0.00 0.00 100
20260902202830 97 320 3.5 7.0 0.00 0.00 0.00 100
20260902202330 98 320 5.2 8.7 0.00 0.00 0.00 100
20260902201830 100 305 3.5 7.8 0.00 0.00 0.00 100
20260902201330 99 284 4.3 6.1 0.00 0.00 0.00 100
20260902200830 99 302 3.5 7.0 0.00 0.00 0.00 100
20260902200330 99 312 5.2 7.0 0.00 0.00 0.00 100
20260902195830 99 286 3.5 11.3 0.00 0.00 0.00 100
20260902195330 99 319 7.8 9.6 0.00 0.00 0.00 100
20260902194830 99 262 2.6 7.8 0.00 0.00 0.00 100
20260902194330 99 312 6.1 6.1 0.00 0.00 0.00 100
20260902193830 99 306 5.2 7.0 0.00 0.00 0.00 100
20260902193330 98 345 2.6 10.4 0.00 0.00 0.00 100
20260902192830 100 247 0.9 8.7 0.00 0.00 0.00 100
20260902192330 98 14 2.6 8.7 0.00 0.00 0.00 100
20260902191830 99 296 1.7 7.0 0.00 0.00 0.00 100
20260902191330 99 330 0.9 8.7 0.00 0.00 0.00 100
20260902190830 99 275 7.0 7.0 0.00 0.00 0.00 100
20260902190330 98 270 6.1 8.7 0.00 0.00 0.00 100
20260902185830 98 330 2.6 6.1 0.00 0.00 0.00 100
20260902185330 98 302 5.2 10.4 0.00 0.00 0.00 100
20260902184830 97 303 1.7 9.6 0.00 0.00 0.00 100
20260902184330 98 295 6.1 9.6 0.00 0.00 0.00 100
20260902183830 98 291 4.3 4.3 0.00 0.00 0.00 100
20260902183330 98 317 1.7 8.7 0.00 0.00 0.00 100
20260902182830 99 286 5.2 10.4 0.00 0.00 0.00 100
20260902182330 97 233 0.0 9.6 0.00 0.00 0.00 100
20260902181830 98 298 3.5 7.8 0.00 0.00 0.00 100
20260902181330 98 277 2.6 7.0 0.00 0.00 0.00 100
20260902180830 98 292 3.5 8.7 0.00 0.00 0.00 100
20260902180330 96 292 7.0 12.2 0.00 0.00 0.00 100
20260902175830 96 312 8.7 10.4 0.00 0.00 0.00 100
20260902175330 96 330 4.3 8.7 0.00 0.00 0.00 100
20260902174830 97 337 0.0 8.7 0.00 0.00 0.00 100
20260902174330 97 313 0.9 8.7 0.00 0.00 0.00 100
20260902173830 95 320 3.5 6.1 0.00 0.00 0.00 100
20260902173330 93 9 0.0 5.2 0.00 0.00 0.00 100
20260902172830 95 330 2.6 7.0 0.00 0.00 0.00 100
20260902172330 95 337 0.9 7.8 0.00 0.00 0.00 100
20260902171830 95 320 7.0 10.4 0.00 0.00 0.00 100
20260902171330 95 316 5.2 5.2 0.00 0.00 0.00 100
20260902170830 95 327 4.3 7.8 0.00 0.00 0.00 100
20260902170330 96 312 2.6 5.2 0.00 0.00 0.00 100
20260902165830 96 210 1.7 7.0 0.00 0.00 0.00 100
20260902165330 97 322 0.9 5.2 0.00 0.00 0.00 100
20260902164830 96 312 1.7 7.0 0.00 0.00 0.00 100
20260902164330 95 338 4.3 7.0 0.00 0.00 0.00 100
20260902163830 94 309 3.5 7.0 0.00 0.00 0.00 100
20260902163330 95 291 1.7 7.8 0.00 0.00 0.00 100
20260902162830 95 295 2.6 6.1 0.00 0.00 0.00 100
20260902162330 94 320 5.2 7.8 0.00 0.00 0.00 100
20260902161830 95 340 4.3 7.8 0.00 0.00 0.00 100
20260902161330 95 320 0.9 4.3 0.00 0.00 0.00 100
20260902160830 95 317 4.3 5.2 0.00 0.00 0.00 100
20260902160330 94 0 3.5 6.1 0.00 0.00 0.00 100
20260902155830 94 305 0.9 4.3 0.00 0.00 0.00 100
20260902155330 95 87 1.7 5.2 0.00 0.00 0.00 100
20260902154830 93 327 4.3 5.2 0.00 0.00 0.00 100
20260902154330 93 12 2.6 5.2 0.00 0.00 0.00 100
20260902153830 93 337 5.2 6.1 0.00 0.00 0.00 100
20260902153330 92 324 1.7 6.1 0.00 0.00 0.00 100
20260902152830 92 333 2.6 5.2 0.00 0.00 0.00 100
20260902152330 92 313 1.7 4.3 0.00 0.00 0.00 100
20260902151830 91 331 2.6 5.2 0.00 0.00 0.00 100
20260902151330 91 322 2.6 5.2 0.00 0.00 0.00 100
20260902150830 90 25 2.6 6.1 0.00 0.00 0.00 100
20260902150330 90 8 4.3 4.3 0.00 0.00 0.00 100
20260902145830 90 59 1.7 5.2 0.00 0.00 0.00 100
20260902145330 90 293 1.7 3.5 0.00 0.00 0.00 100
20260902144830 89 307 1.7 3.5 0.00 0.00 0.00 100
20260902144330 89 323 0.0 2.6 0.00 0.00 0.00 100
20260902143830 88 1 1.7 3.5 0.00 0.00 0.00 100
20260902143330 88 29 0.9 3.5 0.00 0.00 0.00 100
20260902142830 88 316 2.6 4.3 0.00 0.00 0.00 100
20260902142330 89 284 1.7 3.5 0.00 0.00 0.00 100
20260902141830 87 303 0.0 3.5 0.00 0.00 0.00 100
20260902141330 87 358 1.7 4.3 0.00 0.00 0.00 100
20260902140830 87 324 2.6 4.3 0.00 0.00 0.00 100
20260902140330 87 320 0.9 5.2 0.00 0.00 0.00 100
20260902135830 87 319 3.5 6.1 0.00 0.00 0.00 100
20260902135330 87 22 1.7 5.2 0.00 0.00 0.00 100
20260902134830 87 316 1.7 5.2 0.00 0.00 0.00 100
20260902134330 86 319 2.6 6.1 0.00 0.00 0.00 100
20260902133830 87 316 1.7 5.2 0.00 0.00 0.00 100
20260902133330 87 260 1.7 4.3 0.00 0.00 0.00 100
20260902132830 87 322 0.9 5.2 0.00 0.00 0.00 100
20260902132330 87 11 0.9 2.6 0.00 0.00 0.00 100
20260902131830 86 303 1.7 3.5 0.00 0.00 0.00 100
20260902131330 87 268 0.0 4.3 0.00 0.00 0.00 100
20260902130830 86 336 0.9 3.5 0.00 0.00 0.00 100
20260902130330 86 253 1.7 3.5 0.00 0.00 0.00 100
20260902125830 84 316 3.5 3.5 0.00 0.00 0.00 100
20260902125330 84 281 0.9 3.5 0.00 0.00 0.00 100
20260902124830 83 291 2.6 3.5 0.00 0.00 0.00 100
20260902124330 84 296 1.7 4.3 0.00 0.00 0.00 100
20260902123830 83 305 3.5 5.2 0.00 0.00 0.00 100
20260902123330 83 284 3.5 6.1 0.00 0.00 0.00 100
20260902122830 82 278 2.6 5.2 0.00 0.00 0.00 100
20260902122330 81 265 3.5 6.1 0.00 0.00 0.00 100
20260902121830 82 298 0.0 6.1 0.00 0.00 0.00 100
20260902121330 81 286 0.9 5.2 0.00 0.00 0.00 100
20260902120830 80 264 3.5 4.3 0.00 0.00 0.00 100
20260902120330 80 277 3.5 3.5 0.00 0.00 0.00 100
20260902115830 79 281 0.9 2.6 0.00 0.00 0.00 100
20260902115330 79 217 0.0 2.6 0.00 0.00 0.00 100
20260902114830 78 278 0.9 3.5 0.00 0.00 0.00 100
20260902114330 78 271 0.9 3.5 0.00 0.00 0.00 100
20260902113830 77 284 2.6 3.5 0.00 0.00 0.00 100
20260902113330 77 282 0.9 2.6 0.00 0.00 0.00 100
20260902112830 76 230 1.7 4.3 0.00 0.00 0.00 100
20260902112330 77 267 2.6 2.6 0.00 0.00 0.00 100
20260902111830 77 210 1.7 3.5 0.00 0.00 0.00 100
20260902111330 76 236 1.7 3.5 0.00 0.00 0.00 100
20260902110830 76 258 0.9 2.6 0.00 0.00 0.00 100
20260902110330 77 240 1.7 3.5 0.00 0.00 0.00 100
20260902105830 77 156 0.0 3.5 0.00 0.00 0.00 100
20260902105330 77 260 1.7 3.5 0.00 0.00 0.00 100
20260902104830 76 248 1.7 3.5 0.00 0.00 0.00 100
20260902104330 76 261 0.9 3.5 0.00 0.00 0.00 100
20260902103830 76 254 2.6 3.5 0.00 0.00 0.00 100
20260902103330 75 243 1.7 3.5 0.00 0.00 0.00 100
20260902102830 76 239 1.7 3.5 0.00 0.00 0.00 100
20260902102330 75 262 1.7 3.5 0.00 0.00 0.00 100
20260902101830 76 244 1.7 2.6 0.00 0.00 0.00 100
20260902101330 76 233 0.9 2.6 0.00 0.00 0.00 100
20260902100830 76 262 1.7 3.5 0.00 0.00 0.00 100
20260902100330 76 248 0.9 3.5 0.00 0.00 0.00 100
20260902095830 76 247 1.7 2.6 0.00 0.00 0.00 100
20260902095330 76 274 0.9 2.6 0.00 0.00 0.00 100
20260902094830 76 247 1.7 2.6 0.00 0.00 0.00 100
20260902094330 75 213 1.7 1.7 0.00 0.00 0.00 100
20260902093830 76 199 0.9 1.7 0.00 0.00 0.00 100
20260902093330 75 215 0.9 1.7 0.00 0.00 0.00 100
20260902092830 76 239 0.0 0.9 0.00 0.00 0.00 100
20260902092330 77 153 0.0 1.7 0.00 0.00 0.00 100
20260902091830 77 233 0.0 0.9 0.00 0.00 0.00 100
20260902091330 77 220 0.0 1.7 0.00 0.00 0.00 100
20260902090830 77 275 1.7 2.6 0.00 0.00 0.00 100
20260902090330 77 264 1.7 2.6 0.00 0.00 0.00 100
20260902085830 77 239 1.7 2.6 0.00 0.00 0.00 100
20260902085330 77 233 0.0 2.6 0.00 0.00 0.00 100
20260902084830 77 255 0.9 2.6 0.00 0.00 0.00 100
20260902084330 77 253 0.0 2.6 0.00 0.00 0.00 100
20260902083830 77 279 1.7 2.6 0.00 0.00 0.00 100
20260902083330 78 230 0.9 2.6 0.00 0.00 0.00 100
20260902082830 78 267 0.9 2.6 0.00 0.00 0.00 100
20260902082330 77 272 1.7 2.6 0.00 0.00 0.00 100
20260902081830 77 255 0.9 3.5 0.00 0.00 0.00 100
20260902081331 78 282 1.7 3.5 0.00 0.00 0.00 100
20260902080830 77 264 2.6 3.5 0.00 0.00 0.00 100
20260902080330 77 239 1.7 2.6 0.00 0.00 0.00 100
20260902075830 77 274 0.9 2.6 0.00 0.00 0.00 100
20260902075331 77 253 0.9 1.7 0.00 0.00 0.00 100
20260902074830 77 248 0.9 1.7 0.00 0.00 0.00 100
20260902074330 78 237 0.9 2.6 0.00 0.00 0.00 100
20260902073830 77 227 0.9 1.7 0.00 0.00 0.00 100
20260902073330 77 226 0.9 0.9 0.00 0.00 0.00 100
20260902072831 78 223 0.9 1.7 0.00 0.00 0.00 100
20260902072331 77 253 0.9 1.7 0.00 0.00 0.00 100
20260902071831 78 284 0.9 0.9 0.00 0.00 0.00 100
20260902071331 77 250 0.9 1.7 0.00 0.00 0.00 100
20260902070831 78 265 1.7 2.6 0.00 0.00 0.00 100
20260902070331 78 192 0.0 2.6 0.00 0.00 0.00 100
20260902065831 79 257 0.9 2.6 0.00 0.00 0.00 100
20260902065331 79 258 1.7 3.5 0.00 0.00 0.00 100
20260902064831 79 253 1.7 5.2 0.00 0.00 0.00 100
20260902064331 79 225 1.7 6.1 0.00 0.00 0.00 100
20260902063831 79 282 4.3 4.3 0.00 0.00 0.00 100
20260902063331 79 251 2.6 3.5 0.00 0.00 0.00 100
20260902062831 79 264 1.7 4.3 0.00 0.00 0.00 100
20260902051831 78 262 0.0 1.7 0.00 0.00 0.00 100
20260902051331 77 216 0.9 0.9 0.00 0.00 0.00 100
20260902050831 78 203 0.0 0.9 0.00 0.00 0.00 100
20260902050331 78 222 0.0 0.9 0.00 0.00 0.00 100
20260902045831 79 223 0.9 0.9 0.00 0.00 0.00 100
20260902045331 78 240 0.9 1.7 0.00 0.00 0.00 100
20260902044831 78 239 0.0 0.9 0.00 0.00 0.00 100
20260902044331 78 239 0.0 0.9 0.00 0.00 0.00 100
20260902043831 78 213 0.0 0.9 0.00 0.00 0.00 100
20260902043331 78 255 0.0 0.9 0.00 0.00 0.00 100